Location: Aalsum
(53.3404°N, 6.0062°E)
Time: 03:56:01
(UTC+00:00)

NOSS 2-1 (D) - Pass Details

Date: 28 January 2023
Orbit: 418 x 1759 km, 63.3° (Epoch: 23 March)

Event Time Altitude Azimuth Distance (km) Brightness Sun altitude
Rises 17:09:24 0° 312° (NW) 2,558 7.2 -8.8°
Reaches altitude 10° 17:11:18 10° 314° (NW) 1,769 6.3 -9.0°
Maximum altitude 17:15:11 76° 40° (NE) 651 3.5 -9.6°
Drops below altitude 10° 17:20:28 10° 128° (SE) 2,387 6.2 -10.3°
Sets 17:23:22 0° 130° (SE) 3,548 7.1 -10.7°
